Location: Mohawk View
(42.7837°N, 73.7885°W)
Time: 02:13:04
(UTC+00:00)

SPOT 5 - Pass Details

Date: 17 June 2021
Orbit: 622 x 815 km, 98.2° (Epoch: 02 August)

Event Time Altitude Azimuth Distance (km) Brightness Sun altitude
Exits shadow 01:50:50 15° 130° (SE) 2,011 4.5 -11.3°
Maximum altitude 01:54:37 37° 69° (ENE) 1,182 3.8 -11.8°
Drops below altitude 10° 01:59:10 10° 4° (N) 2,256 6.1 -12.3°
Sets 02:01:31 0° 356° (N) 3,151 7.1 -12.6°
